Tracking 23612 objects as of 17-Sep-2021
HD Live streaming from Space Station
objects crossing your sky now
Track INSPIRATION-4

CZ-4B DEB

Track CZ-4B DEB now!
10-day predictions


NORAD ID: 29538
Int'l Code: 2006-015E
Perigee: 595.2 km
Apogee: 796.1 km
Inclination: 98.0 °
Period: 98.5 minutes
Semi major axis: 7066 km
RCS: 0.0184 m2 (small)
Launch date: April 26, 2006
Source: People's Republic of China (PRC)
Launch site: Taiyaun Space Center, China (TSC)

Note: This is SATELLITE DEBRIS
aabbcc
Your satellite tracking list
Your tracking list is empty




NASA's NSSDC Master Catalog

Two Line Element Set (TLE):
1 29538U 06015E   21259.57416526  .00000653  00000-0  12387-3 0  9992
2 29538  97.9810  13.0784 0142116 304.3121  54.4697 14.61453332812283
Source of the keplerian elements: AFSPC